Вернуться в каталог

IRIDIUM 33 DEB

АктивенPO
NORAD 34088·DEBRIS·🇺🇸 United States

Запущен Sep 14, 1997 с Baikonur Cosmodrome

Loading…

Ближайшие Пролёты (ближайшие 24 часа)

TLE

СвежийSource: Space-Track

Эпоха: Sep 14, 2026, 11:18 UTC

1 34088U 97051CX  26257.47116571  .00027326  00000-0  17169-2 0  9995
2 34088  86.3597 261.9597 0001658 177.5160 340.8061 15.09131760928777

Отслеживайте IRIDIUM 33 DEB в реальном времени с AllMySat

Download on the App Store